Location: Antioch Baptist Church
(32.6696°N, 85.7327°W)
Time: 12:21:16
(UTC+00:00)

NOSS 3-2 (A) - Pass Details

Date: 14 July 2020
Orbit: 798 x 1410 km, 63.4° (Epoch: 05 August)

Event Time Altitude Azimuth Distance (km) Brightness Sun altitude
Exits shadow 09:31:03 20° 244° (WSW) 1,839 4.3 -14.2°
Maximum altitude 09:34:34 43° 306° (NW) 1,199 3.9 -13.6°
Drops below altitude 10° 09:40:25 10° 18° (NNE) 2,687 6.7 -12.6°
Sets 09:43:18 0° 25° (NNE) 3,732 7.7 -12.1°
